Location: Banff
(51.1667°N, 115.5667°W)
Time: 09:23:26
(UTC+00:00)

A-11 Canister half - Pass Details

Date: 05 December 2020
Orbit: 1524 x 1684 km, 47.3° (Epoch: 20 January)

Event Time Altitude Azimuth Distance (km) Brightness Sun altitude
Exits shadow 12:39:10 22° 225° (SW) 3,078 10.2 -25.6°
Maximum altitude 12:45:58 57° 157° (SSE) 1,924 9.5 -24.6°
Drops below altitude 10° 12:55:40 10° 82° (E) 3,899 12.1 -23.1°
Sets 12:58:50 0° 79° (E) 4,869 12.9 -22.6°
